Visibility
15.0 15.0 15.0 15.0 15.0 15.0 15.0 15.0 15.0 15.0 15.0 15.0 15.0 15.0 15.0 15.0 15.0 15.0 15.0 15.0 15.0 15.0 15.0 15.0 15.0 15.0 15.0 15.0 15.0 15.0 15.0 15.0 15.0 15.0 15.0 15.0 15.0 15.0 15.0 15.0 15.0 15.0 15.0 15.0
15.0 15.0 15.0 15.0 15.0 15.0 15.0 15.0 15.0 15.0 15.0 15.0 15.0 15.0 15.0 15.0 15.0 15.0 15.0 15.0 15.0 15.0 15.0 15.0 15.0 15.0 15.0 15.0 15.0 15.0 15.0 15.0 15.0 14.5 15.0 15.0 15.0 15.0 15.0 15.0 15.0 15.0 15.0 15.0
15.0 11.5 15.0 15.0 15.0 15.0 15.0 15.0 15.0 15.0 15.0 15.0 15.0 15.0 15.0 15.0 15.0 15.0 15.0 15.0 15.0 15.0 15.0 15.0 15.0 15.0 15.0 15.0 15.0 15.0 15.0 15.0 15.0 15.0 10.9 15.0 15.0 12.9 15.0 15.0 15.0 11.4 15.0 15.0
15.0 14.5 15.0 15.0 15.0 15.0 15.0 15.0 15.0 15.0 15.0 15.0 15.0 15.0 15.0 15.0 15.0 15.0 15.0 15.0 15.0 15.0 15.0 15.0 15.0 15.0 15.0 15.0 15.0 15.0 15.0 15.0 15.0 15.0 6.7 5.7 0.0 0.0 8.0 15.0 5.8 7.9 12.7 15.0
15.0 6.4 14.0 15.0 15.0 15.0 15.0 15.0 15.0 15.0 15.0 13.7 15.0 4.2 15.0 15.0 15.0 15.0 15.0 15.0 15.0 15.0 15.0 15.0 15.0 15.0 15.0 15.0 15.0 15.0 15.0 15.0 15.0 15.0 14.4 3.6 0.0 0.0 0.2 15.0 2.0 15.0 15.0 15.0
13.4 15.0 15.0 15.0 15.0 15.0 15.0 15.0 15.0 15.0 13.0 0.6 15.0 15.0 15.0 15.0 15.0 15.0 15.0 15.0 15.0 15.0 15.0 15.0 15.0 15.0 15.0 15.0 15.0 15.0 15.0 15.0 15.0 15.0 15.0 4.9 0.1 0.0 0.0 10.4 4.9 15.0 15.0 15.0
9.9 3.2 15.0 15.0 15.0 15.0 15.0 15.0 15.0 15.0 6.3 15.0 15.0 15.0 15.0 15.0 15.0 15.0 15.0 15.0 15.0 15.0 15.0 15.0 15.0 15.0 15.0 15.0 15.0 15.0 15.0 15.0 15.0 8.9 9.1 4.0 0.4 0.1 0.0 10.3 15.0 15.0 15.0 15.0
15.0 14.7 15.0 15.0 15.0 15.0 15.0 15.0 15.0 15.0 15.0 15.0 15.0 13.5 15.0 15.0 15.0 15.0 15.0 9.5 15.0 15.0 15.0 15.0 15.0 15.0 15.0 15.0 15.0 15.0 12.9 15.0 8.1 1.2 0.3 0.2 0.2 0.2 0.1 15.0 15.0 15.0 11.6 15.0
15.0 15.0 15.0 14.5 15.0 15.0 15.0 15.0 15.0 15.0 6.1 0.3 15.0 15.0 15.0 15.0 15.0 15.0 15.0 15.0 15.0 15.0 15.0 15.0 15.0 15.0 15.0 15.0 15.0 14.3 4.7 12.0 1.1 0.2 0.2 0.1 0.1 0.1 0.1 0.8 14.2 15.0 14.6 11.9
11.8 15.0 15.0 15.0 15.0 15.0 15.0 15.0 15.0 8.6 1.2 9.0 15.0 15.0 15.0 15.0 15.0 15.0 15.0 15.0 15.0 15.0 15.0 15.0 15.0 15.0 15.0 15.0 15.0 15.0 15.0 8.4 0.2 0.2 0.2 0.1 0.1 0.1 0.1 0.8 1.9 3.1 2.9 5.7
15.0 15.0 15.0 15.0 15.0 15.0 14.8 15.0 15.0 15.0 15.0 0.5 0.1 15.0 15.0 15.0 15.0 15.0 15.0 15.0 15.0 15.0 4.7 13.3 15.0 15.0 15.0 15.0 15.0 14.8 14.5 5.7 5.5 0.3 0.5 0.2 0.1 0.1 0.1 1.2 0.8 0.9 3.0 4.8
14.7 15.0 8.8 14.9 15.0 15.0 15.0 15.0 15.0 15.0 15.0 7.3 3.3 11.0 15.0 15.0 15.0 15.0 15.0 15.0 15.0 15.0 9.2 15.0 15.0 15.0 15.0 4.2 5.9 0.8 0.4 1.7 4.1 1.8 0.5 0.2 0.1 0.1 0.5 0.8 0.4 1.2 1.5 1.7
15.0 15.0 8.2 11.9 15.0 15.0 15.0 15.0 15.0 15.0 15.0 5.8 4.1 15.0 15.0 8.3 15.0 15.0 10.4 11.6 14.8 15.0 15.0 15.0 15.0 3.7 3.0 4.1 2.0 0.4 0.6 0.3 0.4 0.3 0.4 0.2 0.2 0.2 0.3 0.2 0.3 1.1 1.5 1.5
15.0 15.0 5.5 15.0 15.0 15.0 14.6 4.9 15.0 15.0 3.0 14.1 15.0 15.0 7.6 15.0 15.0 14.7 15.0 11.6 11.6 12.9 15.0 4.3 11.9 1.9 0.6 1.3 1.0 0.8 1.2 0.4 0.3 0.2 0.1 0.1 0.1 0.1 0.1 0.1 0.2 0.1 0.4 0.4
15.0 6.3 4.6 15.0 15.0 15.0 15.0 14.9 15.0 15.0 15.0 14.5 15.0 6.1 15.0 15.0 15.0 15.0 15.0 11.1 10.9 14.2 14.7 4.1 2.9 0.9 0.5 0.8 0.7 1.9 3.3 1.1 0.3 0.1 0.1 0.1 0.1 0.1 0.2 0.1 0.1 0.1 0.1 0.1
15.0 15.0 3.1 15.0 7.1 3.9 0.8 15.0 15.0 14.8 15.0 15.0 15.0 15.0 15.0 9.8 4.2 15.0 15.0 4.2 4.1 5.4 4.6 3.9 3.3 2.3 1.8 1.7 0.4 0.5 0.9 0.4 8.4 1.3 0.2 0.1 0.1 0.1 0.1 0.1 0.1 0.1 0.1 0.9
1.1 2.3 0.3 15.0 15.0 12.3 15.0 15.0 15.0 12.3 12.2 15.0 4.4 15.0 11.9 15.0 14.8 14.0 5.9 12.0 15.0 4.2 4.1 4.0 2.4 0.8 1.9 0.5 0.9 0.6 1.2 1.6 1.1 6.6 3.5 0.2 0.1 0.1 0.1 0.1 0.2 1.3 4.7 5.4
0.1 0.1 0.2 7.5 15.0 15.0 15.0 15.0 15.0 15.0 15.0 15.0 15.0 11.0 15.0 15.0 15.0 9.4 8.6 15.0 14.3 8.0 4.1 3.5 3.5 5.3 2.9 2.0 2.5 3.3 12.4 10.7 15.0 15.0 15.0 15.0 15.0 15.0 15.0 15.0 15.0 15.0 15.0 15.0
0.1 0.1 0.1 6.6 0.1 15.0 15.0 15.0 14.0 15.0 15.0 15.0 15.0 15.0 15.0 6.2 14.2 15.0 15.0 15.0 15.0 15.0 15.0 14.4 15.0 10.9 4.2 5.1 14.7 15.0 15.0 15.0 11.1 10.1 5.4 15.0 15.0 15.0 15.0 15.0 15.0 15.0 15.0 15.0
0.1 0.3 0.5 1.6 0.1 12.2 15.0 15.0 15.0 15.0 15.0 15.0 15.0 15.0 6.9 15.0 15.0 15.0 14.3 15.0 15.0 15.0 15.0 9.1 15.0 14.2 4.2 15.0 15.0 15.0 15.0 15.0 15.0 15.0 15.0 15.0 15.0 15.0 15.0 15.0 15.0 15.0 15.0 15.0
0.1 0.2 0.8 2.4 3.3 15.0 15.0 15.0 15.0 15.0 15.0 4.8 15.0 15.0 15.0 15.0 15.0 8.7 15.0 12.1 15.0 15.0 15.0 15.0 4.3 14.8 9.4 8.4 15.0 15.0 15.0 15.0 15.0 15.0 15.0 15.0 15.0 15.0 15.0 15.0 15.0 15.0 15.0 15.0
0.1 0.1 4.8 5.5 3.0 9.1 15.0 15.0 15.0 15.0 9.4 15.0 13.4 15.0 15.0 15.0 4.5 11.5 15.0 15.0 15.0 15.0 15.0 15.0 15.0 15.0 15.0 15.0 15.0 15.0 15.0 15.0 15.0 15.0 15.0 15.0 15.0 15.0 15.0 15.0 11.8 10.0 15.0 15.0
0.1 0.3 1.7 15.0 15.0 15.0 15.0 15.0 15.0 15.0 15.0 15.0 15.0 15.0 15.0 15.0 14.1 15.0 15.0 15.0 15.0 15.0 15.0 15.0 15.0 15.0 15.0 15.0 15.0 15.0 15.0 15.0 15.0 15.0 15.0 15.0 11.9 15.0 15.0 15.0 15.0 13.1 12.3 15.0
7.4 0.7 0.1 2.6 15.0 15.0 15.0 15.0 15.0 15.0 15.0 15.0 15.0 15.0 15.0 15.0 15.0 15.0 15.0 15.0 15.0 15.0 15.0 15.0 15.0 15.0 15.0 15.0 15.0 15.0 15.0 15.0 15.0 15.0 15.0 9.2 15.0 15.0 15.0 12.0 15.0 15.0 15.0 14.1
15.0 14.8 13.8 15.0 15.0 15.0 15.0 15.0 15.0 15.0 15.0 15.0 15.0 15.0 15.0 15.0 15.0 15.0 15.0 15.0 15.0 15.0 15.0 15.0 15.0 15.0 15.0 15.0 15.0 15.0 15.0 15.0 15.0 15.0 15.0 15.0 15.0 15.0 15.0 15.0 15.0 15.0 15.0 15.0
15.0 15.0 15.0 14.9 14.1 15.0 15.0 15.0 15.0 15.0 15.0 15.0 15.0 15.0 15.0 15.0 15.0 15.0 15.0 15.0 15.0 15.0 15.0 15.0 15.0 15.0 15.0 15.0 15.0 15.0 15.0 15.0 15.0 15.0 15.0 15.0 15.0 15.0 15.0 15.0 15.0 15.0 15.0 15.0